GFSNE_prec_precacc_102.txt.gz
Total_Precipitation_Accumulation
0.64 0.60 0.51 0.40 0.35 0.28 0.25 0.30 0.45 0.29 0.07 0.02 0.03 0.06 0.13 0.20 0.28 0.40 0.50 0.46 0.39 0.37 0.40 0.34 0.25 0.28 0.50 0.62 0.68 0.81 1.02 1.06 0.87 0.74 0.64 0.65 0.77 0.84
0.40 0.32 0.27 0.18 0.17 0.21 0.22 0.20 0.22 0.37 0.42 0.18 0.10 0.07 0.10 0.13 0.15 0.24 0.45 0.56 0.38 0.31 0.37 0.43 0.45 0.43 0.39 0.59 0.87 0.92 0.95 1.05 1.04 1.01 1.00 0.77 0.72 0.81
0.26 0.25 0.23 0.23 0.28 0.29 0.32 0.38 0.43 0.49 0.52 0.27 0.12 0.10 0.09 0.08 0.06 0.15 0.27 0.47 0.57 0.41 0.29 0.35 0.45 0.50 0.55 0.49 0.52 0.87 1.22 1.10 0.89 0.79 0.81 0.90 0.90 0.83
0.48 0.49 0.46 0.45 0.48 0.39 0.35 0.31 0.28 0.30 0.46 0.42 0.17 0.13 0.11 0.08 0.05 0.08 0.13 0.26 0.43 0.56 0.53 0.33 0.29 0.36 0.47 0.60 0.60 0.58 0.74 1.20 1.20 0.88 0.72 0.76 0.90 1.03
0.25 0.28 0.25 0.27 0.26 0.23 0.24 0.27 0.34 0.41 0.45 0.37 0.22 0.16 0.14 0.12 0.12 0.13 0.12 0.13 0.19 0.38 0.52 0.60 0.49 0.34 0.35 0.40 0.49 0.59 0.56 0.55 0.89 1.15 0.94 0.75 0.71 0.76
0.22 0.23 0.23 0.27 0.31 0.44 0.57 0.60 0.56 0.47 0.37 0.34 0.30 0.29 0.26 0.24 0.29 0.35 0.38 0.38 0.38 0.45 0.61 0.71 0.71 0.62 0.43 0.36 0.41 0.44 0.52 0.64 0.63 0.76 1.08 1.06 0.81 0.81
0.27 0.37 0.43 0.56 0.53 0.43 0.35 0.25 0.30 0.36 0.39 0.42 0.43 0.42 0.42 0.44 0.47 0.54 0.56 0.51 0.48 0.45 0.52 0.57 0.66 0.72 0.73 0.50 0.35 0.37 0.44 0.46 0.52 0.59 0.64 0.84 1.09 0.95
0.40 0.37 0.35 0.52 0.38 0.46 0.42 0.43 0.40 0.42 0.47 0.52 0.54 0.53 0.51 0.54 0.58 0.63 0.61 0.55 0.47 0.31 0.35 0.42 0.55 0.64 0.69 0.71 0.56 0.42 0.34 0.38 0.39 0.43 0.52 0.54 0.63 1.00
0.42 0.47 0.50 0.54 0.59 0.40 0.43 0.36 0.33 0.34 0.38 0.47 0.60 0.51 0.51 0.43 0.41 0.43 0.37 0.35 0.30 0.20 0.31 0.37 0.38 0.51 0.52 0.68 0.73 0.53 0.45 0.47 0.49 0.48 0.47 0.54 0.53 0.57
0.45 0.38 0.32 0.27 0.25 0.22 0.21 0.28 0.26 0.25 0.26 0.26 0.34 0.30 0.22 0.20 0.26 0.34 0.41 0.46 0.33 0.15 0.25 0.56 0.29 0.40 0.40 0.46 0.67 0.86 0.74 0.62 0.64 0.70 0.64 0.57 0.64 0.62
0.15 0.14 0.16 0.16 0.23 0.25 0.45 0.55 0.32 0.20 0.16 0.17 0.21 0.22 0.23 0.25 0.30 0.63 0.70 0.76 0.53 0.19 0.20 0.50 0.30 0.34 0.40 0.52 0.65 0.70 0.89 0.97 0.82 0.78 0.79 0.70 0.64 0.69
0.14 0.16 0.24 0.17 0.23 0.28 0.53 0.59 0.53 0.22 0.15 0.18 0.18 0.13 0.09 0.12 0.14 0.44 0.62 0.82 0.61 0.49 0.23 0.50 0.31 0.38 0.67 0.53 0.52 0.72 0.83 0.89 0.97 0.90 0.78 0.79 0.76 0.75
0.23 0.17 0.17 0.36 0.38 0.30 0.34 0.53 0.50 0.24 0.18 0.21 0.23 0.21 0.20 0.20 0.22 0.29 0.44 0.77 0.74 0.49 0.07 0.57 0.47 0.27 0.57 0.52 0.57 0.63 0.74 0.91 0.97 1.03 0.99 0.85 0.78 0.75
0.40 0.33 0.36 0.28 0.27 0.24 0.27 0.33 0.27 0.28 0.43 0.47 0.44 0.35 0.35 0.31 0.28 0.28 0.29 0.34 0.39 0.44 0.20 0.68 1.00 0.39 0.56 0.58 0.45 0.62 0.78 0.94 1.15 0.99 1.04 1.09 0.99 0.92
0.41 0.35 0.27 0.24 0.21 0.25 0.23 0.28 0.33 0.55 0.60 0.57 0.48 0.33 0.26 0.24 0.22 0.29 0.34 0.42 0.42 0.41 0.35 0.50 0.56 0.36 0.57 0.62 0.49 0.51 0.78 0.91 0.85 0.82 0.89 0.92 0.88 0.82
0.24 0.22 0.25 0.24 0.24 0.31 0.36 0.36 0.55 0.61 0.55 0.53 0.38 0.31 0.31 0.33 0.34 0.34 0.40 0.45 0.79 0.75 0.47 0.41 0.40 0.59 0.72 0.46 0.38 0.43 0.42 0.69 0.81 0.80 0.78 0.85 0.87 0.81
0.30 0.36 0.30 0.25 0.26 0.26 0.30 0.26 0.27 0.27 0.35 0.35 0.35 0.30 0.34 0.29 0.31 0.34 0.37 0.33 0.55 0.38 0.47 0.45 0.44 0.50 0.53 0.52 0.68 0.40 0.44 0.56 0.67 0.71 0.78 0.82 0.83 0.97
0.46 0.36 0.28 0.30 0.32 0.31 0.37 0.38 0.26 0.26 0.24 0.26 0.34 0.31 0.36 0.43 0.35 0.30 0.37 0.46 0.39 0.39 0.36 0.34 0.45 0.81 0.79 0.53 0.37 0.51 0.98 0.96 0.73 0.57 0.61 0.76 0.82 0.83
0.52 0.40 0.38 0.40 0.40 0.37 0.35 0.35 0.39 0.42 0.35 0.37 0.41 0.40 0.33 0.33 0.41 0.33 0.34 0.47 0.44 0.34 0.45 0.52 0.58 0.67 0.84 0.87 0.38 0.28 0.57 0.52 0.51 0.50 0.54 0.68 0.90 0.84
0.32 0.36 0.36 0.31 0.27 0.22 0.21 0.25 0.26 0.29 0.30 0.29 0.38 0.34 0.32 0.32 0.34 0.33 0.32 0.36 0.38 0.31 0.27 0.30 0.39 0.48 0.66 0.62 0.64 0.39 0.34 0.37 0.46 0.53 0.59 0.63 0.71 0.78
0.22 0.24 0.27 0.27 0.22 0.19 0.22 0.24 0.28 0.30 0.29 0.30 0.32 0.31 0.28 0.31 0.27 0.25 0.25 0.24 0.24 0.26 0.29 0.25 0.24 0.32 0.44 0.51 0.63 0.55 0.53 0.37 0.31 0.42 0.54 0.75 0.71 0.61
0.27 0.26 0.22 0.24 0.26 0.23 0.22 0.23 0.22 0.22 0.22 0.23 0.27 0.29 0.31 0.32 0.30 0.29 0.27 0.27 0.24 0.21 0.21 0.18 0.21 0.26 0.38 0.42 0.51 0.47 0.48 0.56 0.38 0.30 0.39 0.51 0.66 0.76
0.28 0.27 0.22 0.22 0.22 0.24 0.24 0.23 0.21 0.21 0.23 0.25 0.24 0.26 0.30 0.32 0.30 0.31 0.30 0.27 0.26 0.24 0.20 0.22 0.24 0.26 0.24 0.21 0.35 0.45 0.32 0.36 0.45 0.34 0.42 0.38 0.33 0.33

GFSNE_prec_precacc_105.txt.gz
Total_Precipitation_Accumulation
0.65 0.61 0.52 0.41 0.36 0.29 0.26 0.31 0.46 0.29 0.07 0.02 0.03 0.06 0.13 0.20 0.28 0.40 0.51 0.47 0.40 0.38 0.42 0.38 0.29 0.32 0.55 0.67 0.71 0.84 1.05 1.09 0.89 0.76 0.67 0.68 0.79 0.87
0.40 0.32 0.27 0.18 0.17 0.21 0.23 0.20 0.23 0.37 0.42 0.18 0.10 0.07 0.10 0.14 0.17 0.26 0.46 0.57 0.39 0.32 0.37 0.45 0.47 0.46 0.43 0.63 0.91 0.96 0.99 1.09 1.09 1.06 1.04 0.81 0.76 0.83
0.27 0.25 0.23 0.23 0.28 0.29 0.34 0.40 0.44 0.49 0.52 0.27 0.13 0.11 0.12 0.11 0.09 0.16 0.27 0.47 0.57 0.41 0.29 0.35 0.46 0.54 0.60 0.56 0.62 0.99 1.35 1.22 0.98 0.86 0.86 0.94 0.94 0.86
0.48 0.50 0.46 0.45 0.49 0.40 0.36 0.32 0.29 0.31 0.48 0.47 0.24 0.22 0.21 0.13 0.07 0.08 0.14 0.26 0.44 0.56 0.53 0.33 0.29 0.38 0.51 0.68 0.72 0.73 0.88 1.32 1.30 0.97 0.80 0.85 0.99 1.12
0.26 0.30 0.28 0.30 0.28 0.25 0.26 0.30 0.39 0.53 0.68 0.64 0.40 0.29 0.21 0.16 0.14 0.15 0.13 0.14 0.22 0.46 0.57 0.64 0.51 0.35 0.35 0.41 0.51 0.63 0.62 0.64 1.01 1.27 1.08 0.91 0.86 0.90
0.25 0.25 0.24 0.27 0.32 0.44 0.58 0.70 0.78 0.79 0.66 0.52 0.40 0.36 0.31 0.26 0.29 0.35 0.38 0.39 0.39 0.47 0.68 0.78 0.77 0.65 0.45 0.37 0.42 0.46 0.56 0.72 0.75 0.91 1.24 1.21 0.95 0.92
0.27 0.37 0.43 0.59 0.57 0.47 0.44 0.39 0.44 0.48 0.46 0.48 0.47 0.43 0.42 0.44 0.48 0.54 0.56 0.51 0.49 0.45 0.52 0.58 0.67 0.75 0.78 0.58 0.42 0.44 0.52 0.56 0.65 0.73 0.78 0.96 1.21 1.04
0.42 0.38 0.37 0.56 0.43 0.56 0.53 0.51 0.44 0.47 0.50 0.53 0.55 0.54 0.51 0.54 0.58 0.63 0.61 0.55 0.48 0.31 0.35 0.42 0.55 0.64 0.70 0.72 0.58 0.47 0.42 0.48 0.50 0.54 0.63 0.64 0.71 1.06
0.46 0.52 0.58 0.66 0.73 0.49 0.55 0.44 0.36 0.36 0.39 0.48 0.60 0.51 0.52 0.44 0.41 0.43 0.37 0.36 0.31 0.20 0.32 0.38 0.38 0.51 0.52 0.68 0.74 0.54 0.46 0.49 0.54 0.56 0.55 0.62 0.60 0.62
0.51 0.47 0.43 0.42 0.45 0.39 0.28 0.30 0.26 0.25 0.26 0.26 0.34 0.30 0.23 0.20 0.27 0.35 0.42 0.47 0.33 0.15 0.26 0.60 0.30 0.40 0.40 0.46 0.67 0.86 0.75 0.66 0.70 0.76 0.71 0.63 0.69 0.66
0.23 0.26 0.33 0.36 0.38 0.30 0.46 0.55 0.32 0.20 0.16 0.17 0.21 0.22 0.23 0.25 0.31 0.64 0.71 0.76 0.53 0.19 0.22 0.52 0.31 0.35 0.40 0.52 0.65 0.70 0.90 1.01 0.90 0.88 0.90 0.80 0.74 0.77
0.28 0.31 0.34 0.21 0.23 0.28 0.53 0.59 0.53 0.22 0.15 0.18 0.18 0.13 0.09 0.13 0.15 0.45 0.63 0.83 0.61 0.50 0.25 0.50 0.31 0.38 0.68 0.53 0.52 0.72 0.83 0.89 0.98 0.92 0.81 0.84 0.84 0.88
0.24 0.17 0.17 0.36 0.38 0.30 0.34 0.53 0.50 0.24 0.18 0.21 0.23 0.21 0.20 0.20 0.22 0.29 0.44 0.77 0.75 0.50 0.07 0.58 0.47 0.27 0.57 0.52 0.57 0.63 0.74 0.91 0.97 1.03 0.99 0.86 0.80 0.79
0.40 0.33 0.36 0.28 0.27 0.24 0.27 0.33 0.27 0.28 0.43 0.47 0.44 0.35 0.35 0.31 0.28 0.28 0.29 0.34 0.39 0.44 0.20 0.68 1.01 0.41 0.58 0.59 0.46 0.62 0.78 0.94 1.15 0.99 1.04 1.09 1.01 0.95
0.41 0.35 0.27 0.24 0.21 0.25 0.23 0.28 0.33 0.55 0.60 0.57 0.48 0.33 0.26 0.24 0.22 0.29 0.34 0.42 0.42 0.41 0.35 0.50 0.56 0.37 0.58 0.65 0.52 0.53 0.79 0.91 0.85 0.83 0.90 0.93 0.91 0.86
0.24 0.22 0.25 0.24 0.24 0.31 0.36 0.36 0.55 0.61 0.55 0.53 0.38 0.31 0.31 0.33 0.34 0.34 0.40 0.45 0.79 0.75 0.47 0.41 0.40 0.59 0.72 0.47 0.39 0.44 0.42 0.69 0.81 0.80 0.78 0.85 0.87 0.81
0.30 0.36 0.30 0.25 0.26 0.26 0.30 0.26 0.27 0.27 0.35 0.35 0.35 0.30 0.34 0.29 0.31 0.34 0.37 0.33 0.55 0.38 0.47 0.45 0.44 0.50 0.53 0.52 0.68 0.41 0.45 0.57 0.69 0.72 0.78 0.82 0.83 0.97
0.46 0.36 0.28 0.30 0.32 0.31 0.37 0.38 0.26 0.26 0.24 0.26 0.34 0.31 0.36 0.43 0.35 0.30 0.37 0.46 0.39 0.39 0.36 0.34 0.45 0.81 0.79 0.53 0.38 0.52 0.99 0.96 0.73 0.57 0.61 0.76 0.82 0.83
0.52 0.40 0.38 0.40 0.40 0.37 0.35 0.35 0.39 0.42 0.35 0.37 0.41 0.40 0.33 0.33 0.41 0.33 0.34 0.47 0.44 0.34 0.45 0.52 0.58 0.67 0.85 0.88 0.38 0.28 0.57 0.52 0.51 0.50 0.54 0.68 0.90 0.84
0.32 0.36 0.36 0.31 0.27 0.22 0.21 0.25 0.26 0.29 0.30 0.29 0.38 0.34 0.32 0.32 0.34 0.33 0.32 0.36 0.38 0.31 0.28 0.30 0.39 0.48 0.67 0.62 0.65 0.39 0.34 0.37 0.46 0.54 0.59 0.63 0.71 0.78
0.22 0.24 0.27 0.27 0.22 0.19 0.22 0.24 0.28 0.30 0.29 0.30 0.32 0.31 0.28 0.31 0.27 0.25 0.25 0.24 0.24 0.27 0.30 0.26 0.24 0.32 0.44 0.51 0.63 0.55 0.53 0.37 0.31 0.43 0.55 0.76 0.72 0.61
0.27 0.26 0.22 0.24 0.26 0.23 0.22 0.23 0.22 0.22 0.22 0.23 0.27 0.29 0.31 0.32 0.30 0.29 0.27 0.27 0.24 0.21 0.21 0.18 0.21 0.26 0.38 0.42 0.52 0.47 0.48 0.56 0.38 0.30 0.40 0.53 0.68 0.77
0.28 0.27 0.22 0.22 0.22 0.24 0.24 0.23 0.21 0.21 0.23 0.25 0.24 0.26 0.30 0.32 0.30 0.31 0.30 0.27 0.26 0.24 0.20 0.22 0.24 0.26 0.24 0.21 0.35 0.46 0.32 0.36 0.45 0.34 0.42 0.38 0.33 0.35

GFSNE_prec_precacc_111.txt.gz
Total_Precipitation_Accumulation
0.86 0.78 0.63 0.47 0.42 0.33 0.28 0.32 0.48 0.31 0.07 0.02 0.03 0.06 0.13 0.20 0.28 0.40 0.51 0.47 0.41 0.39 0.44 0.39 0.29 0.32 0.55 0.68 0.74 0.89 1.11 1.19 1.03 0.93 0.88 0.93 1.07 1.15
0.57 0.42 0.33 0.23 0.21 0.25 0.27 0.24 0.26 0.40 0.44 0.18 0.10 0.07 0.10 0.14 0.17 0.26 0.46 0.59 0.46 0.41 0.44 0.47 0.47 0.46 0.43 0.63 0.92 0.98 1.03 1.15 1.18 1.19 1.24 1.06 1.04 1.14
0.36 0.29 0.25 0.25 0.30 0.31 0.35 0.42 0.46 0.51 0.53 0.27 0.13 0.11 0.13 0.13 0.15 0.27 0.40 0.58 0.66 0.46 0.31 0.37 0.47 0.54 0.61 0.57 0.62 1.00 1.39 1.28 1.07 0.97 1.00 1.12 1.15 1.12
0.52 0.52 0.47 0.47 0.50 0.41 0.37 0.32 0.30 0.32 0.53 0.52 0.30 0.31 0.37 0.28 0.18 0.16 0.19 0.29 0.46 0.62 0.57 0.35 0.30 0.39 0.52 0.69 0.72 0.74 0.91 1.38 1.38 1.07 0.90 0.95 1.12 1.27
0.27 0.30 0.28 0.31 0.29 0.25 0.26 0.30 0.41 0.58 0.75 0.74 0.56 0.41 0.32 0.26 0.23 0.22 0.17 0.17 0.24 0.50 0.59 0.65 0.52 0.35 0.35 0.41 0.52 0.63 0.62 0.65 1.03 1.31 1.12 0.96 0.93 0.99
0.25 0.25 0.24 0.27 0.32 0.44 0.58 0.70 0.79 0.83 0.74 0.65 0.56 0.52 0.46 0.36 0.33 0.36 0.38 0.39 0.39 0.47 0.68 0.79 0.78 0.65 0.45 0.38 0.42 0.47 0.57 0.73 0.78 0.94 1.28 1.27 1.03 1.03
0.27 0.37 0.43 0.60 0.57 0.48 0.45 0.39 0.47 0.55 0.61 0.67 0.63 0.54 0.48 0.48 0.50 0.55 0.56 0.51 0.49 0.45 0.52 0.58 0.67 0.75 0.79 0.60 0.45 0.47 0.55 0.59 0.68 0.77 0.82 1.01 1.25 1.09
0.43 0.40 0.41 0.63 0.49 0.65 0.63 0.66 0.65 0.71 0.71 0.68 0.69 0.67 0.60 0.58 0.59 0.63 0.61 0.55 0.48 0.31 0.35 0.42 0.55 0.64 0.70 0.72 0.59 0.47 0.43 0.51 0.54 0.60 0.69 0.70 0.78 1.14
0.50 0.57 0.64 0.78 0.86 0.58 0.73 0.68 0.62 0.61 0.60 0.65 0.71 0.56 0.53 0.45 0.42 0.43 0.37 0.36 0.31 0.20 0.32 0.38 0.38 0.51 0.52 0.68 0.74 0.54 0.47 0.51 0.58 0.61 0.62 0.70 0.68 0.72
0.57 0.53 0.52 0.54 0.63 0.59 0.54 0.58 0.51 0.38 0.31 0.27 0.35 0.31 0.24 0.21 0.28 0.36 0.42 0.47 0.33 0.15 0.26 0.60 0.30 0.40 0.40 0.46 0.67 0.86 0.75 0.67 0.72 0.78 0.74 0.68 0.75 0.73
0.33 0.41 0.49 0.54 0.71 0.62 0.66 0.66 0.36 0.21 0.17 0.17 0.21 0.23 0.23 0.25 0.31 0.64 0.71 0.76 0.53 0.19 0.22 0.52 0.31 0.35 0.40 0.52 0.65 0.70 0.90 1.01 0.90 0.88 0.91 0.81 0.76 0.82
0.42 0.53 0.62 0.42 0.41 0.38 0.58 0.60 0.54 0.22 0.15 0.18 0.18 0.13 0.09 0.13 0.15 0.45 0.63 0.83 0.61 0.50 0.25 0.50 0.31 0.39 0.68 0.53 0.52 0.72 0.83 0.89 0.98 0.92 0.81 0.84 0.84 0.90
0.38 0.34 0.32 0.47 0.43 0.32 0.35 0.53 0.51 0.24 0.18 0.21 0.23 0.21 0.20 0.20 0.22 0.29 0.44 0.77 0.75 0.50 0.07 0.58 0.47 0.28 0.58 0.52 0.57 0.63 0.74 0.91 0.97 1.03 0.99 0.86 0.80 0.81
0.64 0.56 0.53 0.36 0.29 0.25 0.27 0.33 0.27 0.28 0.43 0.47 0.44 0.35 0.35 0.31 0.28 0.28 0.29 0.34 0.39 0.44 0.20 0.69 1.01 0.41 0.59 0.60 0.46 0.62 0.78 0.94 1.15 1.00 1.04 1.09 1.01 0.95
0.56 0.46 0.32 0.25 0.22 0.27 0.24 0.29 0.33 0.55 0.60 0.57 0.48 0.33 0.26 0.24 0.22 0.29 0.34 0.42 0.42 0.41 0.35 0.50 0.56 0.37 0.58 0.65 0.52 0.53 0.80 0.92 0.86 0.83 0.90 0.93 0.91 0.86
0.31 0.26 0.27 0.26 0.26 0.32 0.37 0.36 0.55 0.61 0.55 0.53 0.38 0.31 0.31 0.33 0.34 0.34 0.40 0.45 0.79 0.75 0.47 0.41 0.40 0.59 0.72 0.47 0.39 0.44 0.42 0.70 0.81 0.80 0.78 0.85 0.87 0.81
0.37 0.40 0.32 0.26 0.26 0.27 0.30 0.26 0.27 0.27 0.35 0.35 0.35 0.30 0.34 0.29 0.31 0.34 0.37 0.33 0.55 0.38 0.47 0.45 0.44 0.50 0.53 0.53 0.68 0.41 0.45 0.57 0.69 0.72 0.78 0.82 0.83 0.97
0.50 0.39 0.30 0.31 0.32 0.31 0.37 0.38 0.26 0.26 0.24 0.26 0.34 0.31 0.36 0.43 0.35 0.30 0.37 0.46 0.39 0.39 0.36 0.34 0.45 0.81 0.79 0.53 0.38 0.52 0.99 0.96 0.73 0.57 0.61 0.77 0.82 0.83
0.53 0.40 0.38 0.40 0.40 0.37 0.35 0.35 0.39 0.42 0.35 0.37 0.41 0.40 0.33 0.33 0.41 0.33 0.34 0.47 0.44 0.34 0.45 0.52 0.58 0.67 0.85 0.88 0.38 0.28 0.57 0.53 0.51 0.50 0.54 0.69 0.91 0.84
0.33 0.36 0.36 0.31 0.27 0.22 0.21 0.25 0.26 0.29 0.30 0.29 0.38 0.34 0.32 0.32 0.34 0.33 0.32 0.36 0.38 0.32 0.28 0.30 0.39 0.48 0.68 0.64 0.66 0.39 0.34 0.38 0.49 0.57 0.60 0.63 0.71 0.78
0.22 0.24 0.27 0.27 0.22 0.19 0.22 0.24 0.28 0.30 0.29 0.30 0.32 0.31 0.28 0.31 0.27 0.25 0.25 0.24 0.25 0.27 0.30 0.26 0.24 0.32 0.44 0.52 0.63 0.55 0.53 0.37 0.34 0.49 0.60 0.80 0.72 0.61
0.27 0.26 0.22 0.24 0.26 0.23 0.22 0.23 0.22 0.22 0.22 0.23 0.27 0.29 0.31 0.32 0.30 0.29 0.27 0.27 0.24 0.21 0.21 0.18 0.21 0.26 0.38 0.42 0.52 0.47 0.49 0.56 0.39 0.31 0.41 0.56 0.71 0.78
0.28 0.27 0.22 0.22 0.22 0.24 0.24 0.23 0.21 0.21 0.23 0.25 0.24 0.26 0.30 0.32 0.30 0.31 0.30 0.27 0.26 0.24 0.20 0.22 0.24 0.26 0.24 0.21 0.37 0.48 0.35 0.40 0.49 0.40 0.46 0.39 0.34 0.36

GFSNE_prec_precacc_114.txt.gz
Total_Precipitation_Accumulation
1.01 0.95 0.75 0.55 0.49 0.39 0.32 0.35 0.50 0.32 0.08 0.02 0.03 0.06 0.14 0.21 0.29 0.40 0.51 0.48 0.41 0.39 0.45 0.41 0.33 0.38 0.60 0.71 0.76 0.89 1.11 1.19 1.04 0.94 0.89 0.94 1.09 1.18
0.86 0.74 0.61 0.41 0.35 0.36 0.35 0.30 0.32 0.48 0.50 0.18 0.11 0.07 0.10 0.14 0.17 0.26 0.47 0.60 0.48 0.45 0.48 0.51 0.51 0.49 0.44 0.64 0.93 0.99 1.03 1.15 1.18 1.20 1.24 1.07 1.05 1.15
0.74 0.61 0.47 0.43 0.46 0.40 0.43 0.48 0.52 0.57 0.59 0.27 0.14 0.11 0.13 0.13 0.15 0.27 0.41 0.60 0.69 0.51 0.34 0.40 0.49 0.56 0.62 0.57 0.63 1.00 1.39 1.28 1.07 0.97 1.01 1.12 1.16 1.13
0.71 0.76 0.69 0.59 0.55 0.44 0.40 0.35 0.32 0.34 0.56 0.54 0.31 0.31 0.37 0.28 0.20 0.18 0.21 0.32 0.48 0.65 0.60 0.36 0.31 0.39 0.52 0.69 0.73 0.74 0.91 1.38 1.38 1.07 0.90 0.96 1.12 1.28
0.46 0.43 0.36 0.34 0.30 0.26 0.27 0.31 0.42 0.59 0.78 0.78 0.57 0.42 0.35 0.30 0.26 0.25 0.20 0.19 0.25 0.51 0.60 0.66 0.52 0.35 0.35 0.41 0.52 0.63 0.62 0.65 1.03 1.31 1.12 0.96 0.93 0.99
0.29 0.29 0.25 0.28 0.32 0.45 0.58 0.70 0.79 0.83 0.74 0.67 0.60 0.58 0.50 0.40 0.38 0.40 0.41 0.41 0.41 0.48 0.69 0.79 0.78 0.65 0.45 0.38 0.42 0.47 0.57 0.73 0.78 0.94 1.28 1.27 1.03 1.03
0.28 0.38 0.44 0.60 0.57 0.48 0.45 0.40 0.47 0.56 0.62 0.69 0.68 0.61 0.55 0.52 0.54 0.57 0.57 0.52 0.49 0.45 0.52 0.58 0.67 0.75 0.79 0.60 0.45 0.47 0.55 0.59 0.68 0.77 0.82 1.01 1.25 1.09
0.43 0.40 0.41 0.64 0.49 0.65 0.63 0.67 0.66 0.71 0.71 0.71 0.73 0.71 0.64 0.60 0.60 0.63 0.61 0.55 0.48 0.31 0.35 0.42 0.55 0.64 0.70 0.72 0.59 0.47 0.43 0.51 0.54 0.60 0.69 0.70 0.78 1.14
0.50 0.57 0.65 0.78 0.87 0.58 0.73 0.68 0.63 0.64 0.63 0.67 0.74 0.59 0.55 0.45 0.42 0.43 0.37 0.36 0.31 0.20 0.32 0.38 0.38 0.51 0.52 0.68 0.74 0.54 0.47 0.51 0.58 0.61 0.62 0.70 0.68 0.72
0.58 0.54 0.53 0.56 0.66 0.61 0.54 0.59 0.52 0.41 0.33 0.29 0.36 0.31 0.24 0.21 0.28 0.36 0.42 0.47 0.33 0.15 0.26 0.60 0.30 0.40 0.40 0.46 0.67 0.86 0.75 0.67 0.72 0.78 0.74 0.68 0.75 0.73
0.35 0.44 0.51 0.57 0.79 0.67 0.68 0.67 0.38 0.23 0.17 0.17 0.21 0.23 0.23 0.25 0.31 0.64 0.71 0.76 0.53 0.19 0.22 0.52 0.31 0.35 0.40 0.52 0.65 0.70 0.90 1.01 0.90 0.88 0.91 0.81 0.76 0.82
0.45 0.59 0.69 0.47 0.51 0.44 0.60 0.62 0.55 0.23 0.15 0.19 0.18 0.13 0.09 0.13 0.15 0.45 0.63 0.83 0.61 0.50 0.25 0.50 0.31 0.39 0.68 0.53 0.52 0.72 0.83 0.89 0.98 0.92 0.81 0.84 0.84 0.90
0.42 0.39 0.42 0.57 0.48 0.36 0.39 0.57 0.54 0.27 0.20 0.22 0.23 0.21 0.20 0.20 0.22 0.29 0.44 0.77 0.75 0.50 0.07 0.58 0.47 0.28 0.58 0.52 0.57 0.63 0.74 0.91 0.97 1.03 0.99 0.86 0.80 0.81
0.72 0.67 0.68 0.55 0.46 0.38 0.37 0.42 0.34 0.33 0.46 0.49 0.45 0.36 0.35 0.31 0.28 0.28 0.29 0.34 0.39 0.44 0.20 0.69 1.01 0.41 0.59 0.60 0.46 0.62 0.78 0.94 1.15 1.00 1.04 1.09 1.01 0.95
0.65 0.58 0.47 0.40 0.35 0.39 0.34 0.35 0.38 0.58 0.62 0.58 0.48 0.33 0.26 0.24 0.22 0.29 0.34 0.42 0.42 0.41 0.35 0.50 0.56 0.37 0.58 0.65 0.52 0.53 0.80 0.92 0.86 0.83 0.90 0.93 0.91 0.86
0.43 0.39 0.40 0.38 0.35 0.40 0.43 0.41 0.58 0.63 0.56 0.53 0.38 0.31 0.31 0.33 0.34 0.34 0.40 0.45 0.79 0.75 0.47 0.41 0.40 0.59 0.72 0.47 0.39 0.44 0.42 0.70 0.81 0.80 0.78 0.85 0.87 0.82
0.56 0.59 0.49 0.39 0.35 0.31 0.32 0.27 0.28 0.27 0.35 0.35 0.35 0.30 0.34 0.29 0.31 0.34 0.37 0.33 0.55 0.38 0.47 0.45 0.44 0.50 0.53 0.53 0.68 0.41 0.45 0.57 0.69 0.72 0.79 0.83 0.83 0.97
0.54 0.42 0.32 0.32 0.33 0.31 0.38 0.38 0.26 0.26 0.24 0.26 0.34 0.31 0.36 0.43 0.35 0.30 0.37 0.46 0.39 0.39 0.36 0.34 0.45 0.81 0.79 0.53 0.38 0.52 0.99 0.96 0.73 0.57 0.62 0.78 0.83 0.83
0.55 0.41 0.39 0.41 0.40 0.37 0.35 0.35 0.39 0.42 0.35 0.37 0.41 0.40 0.33 0.33 0.41 0.33 0.34 0.47 0.44 0.34 0.45 0.52 0.58 0.67 0.85 0.88 0.38 0.28 0.58 0.54 0.52 0.51 0.54 0.69 0.92 0.84
0.33 0.36 0.36 0.31 0.27 0.22 0.21 0.25 0.26 0.29 0.30 0.29 0.38 0.34 0.32 0.32 0.34 0.33 0.32 0.36 0.38 0.32 0.28 0.30 0.39 0.48 0.68 0.64 0.66 0.39 0.35 0.41 0.52 0.58 0.60 0.64 0.72 0.78
0.22 0.24 0.27 0.27 0.22 0.19 0.22 0.24 0.28 0.30 0.29 0.30 0.32 0.31 0.28 0.31 0.27 0.25 0.25 0.24 0.25 0.27 0.30 0.26 0.24 0.32 0.44 0.52 0.64 0.55 0.53 0.38 0.38 0.55 0.63 0.82 0.73 0.61
0.27 0.26 0.22 0.24 0.26 0.23 0.22 0.23 0.22 0.22 0.22 0.23 0.27 0.29 0.31 0.32 0.30 0.29 0.27 0.27 0.24 0.22 0.21 0.18 0.21 0.26 0.38 0.42 0.53 0.48 0.50 0.56 0.39 0.32 0.47 0.63 0.75 0.81
0.28 0.27 0.22 0.22 0.22 0.24 0.24 0.23 0.21 0.21 0.23 0.25 0.24 0.26 0.30 0.32 0.30 0.31 0.30 0.27 0.26 0.24 0.20 0.22 0.24 0.26 0.24 0.22 0.38 0.50 0.36 0.40 0.50 0.42 0.50 0.42 0.37 0.40

GFSNE_prec_precacc_117.txt.gz
Total_Precipitation_Accumulation
1.01 0.95 0.75 0.56 0.50 0.39 0.33 0.35 0.51 0.32 0.08 0.02 0.03 0.07 0.16 0.23 0.31 0.41 0.52 0.50 0.42 0.39 0.45 0.41 0.33 0.39 0.62 0.74 0.78 0.91 1.12 1.20 1.04 0.95 0.89 0.95 1.09 1.19
0.91 0.81 0.70 0.51 0.43 0.43 0.42 0.36 0.37 0.51 0.53 0.18 0.13 0.12 0.13 0.15 0.18 0.26 0.47 0.61 0.48 0.46 0.49 0.53 0.54 0.53 0.48 0.67 0.94 1.00 1.05 1.17 1.19 1.20 1.25 1.07 1.05 1.16
0.80 0.76 0.68 0.64 0.68 0.59 0.58 0.59 0.59 0.64 0.64 0.28 0.19 0.18 0.18 0.17 0.16 0.27 0.42 0.61 0.73 0.57 0.36 0.41 0.50 0.57 0.62 0.58 0.63 1.01 1.39 1.28 1.07 0.97 1.01 1.12 1.16 1.13
0.80 0.87 0.84 0.76 0.75 0.62 0.56 0.46 0.39 0.41 0.63 0.58 0.37 0.38 0.43 0.32 0.22 0.19 0.23 0.35 0.51 0.68 0.61 0.36 0.31 0.39 0.52 0.69 0.73 0.74 0.91 1.38 1.38 1.07 0.90 0.96 1.12 1.28
0.66 0.55 0.49 0.47 0.41 0.36 0.34 0.37 0.47 0.63 0.81 0.83 0.67 0.51 0.42 0.33 0.29 0.28 0.24 0.22 0.27 0.54 0.60 0.66 0.52 0.35 0.35 0.41 0.52 0.63 0.62 0.65 1.03 1.31 1.12 0.96 0.93 0.99
0.58 0.48 0.38 0.36 0.39 0.51 0.63 0.74 0.83 0.86 0.76 0.68 0.61 0.60 0.55 0.45 0.42 0.44 0.44 0.44 0.43 0.49 0.69 0.80 0.78 0.65 0.45 0.38 0.42 0.47 0.57 0.73 0.78 0.94 1.28 1.27 1.03 1.03
0.40 0.45 0.54 0.70 0.65 0.57 0.53 0.46 0.51 0.58 0.63 0.71 0.70 0.63 0.56 0.53 0.55 0.58 0.58 0.52 0.49 0.45 0.52 0.59 0.68 0.75 0.79 0.60 0.45 0.47 0.55 0.59 0.68 0.77 0.82 1.01 1.25 1.09
0.56 0.45 0.44 0.70 0.55 0.70 0.67 0.69 0.67 0.72 0.72 0.71 0.74 0.73 0.66 0.62 0.61 0.64 0.61 0.55 0.48 0.31 0.35 0.42 0.55 0.64 0.70 0.72 0.59 0.47 0.43 0.51 0.54 0.60 0.69 0.70 0.78 1.14
0.61 0.62 0.68 0.80 0.88 0.59 0.74 0.68 0.64 0.66 0.64 0.69 0.76 0.61 0.56 0.46 0.42 0.43 0.37 0.36 0.31 0.20 0.32 0.38 0.38 0.51 0.52 0.68 0.74 0.54 0.47 0.51 0.58 0.61 0.62 0.70 0.68 0.72
0.60 0.55 0.53 0.56 0.67 0.61 0.54 0.60 0.53 0.41 0.34 0.30 0.36 0.31 0.24 0.21 0.28 0.36 0.42 0.47 0.33 0.15 0.26 0.60 0.30 0.40 0.40 0.46 0.67 0.86 0.75 0.67 0.72 0.78 0.74 0.68 0.75 0.73
0.36 0.45 0.52 0.58 0.83 0.68 0.68 0.67 0.38 0.24 0.19 0.18 0.22 0.23 0.24 0.26 0.31 0.64 0.71 0.76 0.53 0.19 0.22 0.52 0.31 0.35 0.40 0.52 0.65 0.70 0.90 1.01 0.90 0.88 0.91 0.81 0.76 0.82
0.47 0.62 0.72 0.50 0.54 0.45 0.60 0.62 0.56 0.24 0.16 0.19 0.20 0.16 0.12 0.15 0.16 0.46 0.64 0.83 0.61 0.50 0.25 0.50 0.31 0.39 0.68 0.53 0.52 0.72 0.83 0.89 0.98 0.92 0.81 0.84 0.84 0.90
0.43 0.41 0.47 0.61 0.50 0.37 0.39 0.58 0.56 0.31 0.26 0.29 0.29 0.25 0.22 0.22 0.23 0.29 0.45 0.77 0.75 0.50 0.07 0.58 0.47 0.28 0.58 0.52 0.57 0.63 0.74 0.91 0.97 1.03 0.99 0.86 0.80 0.81
0.74 0.71 0.76 0.60 0.48 0.41 0.41 0.47 0.40 0.38 0.51 0.52 0.47 0.37 0.36 0.31 0.28 0.28 0.29 0.34 0.39 0.44 0.20 0.69 1.01 0.41 0.59 0.60 0.46 0.62 0.78 0.94 1.15 1.00 1.04 1.09 1.01 0.95
0.73 0.69 0.59 0.50 0.45 0.47 0.41 0.41 0.44 0.65 0.67 0.62 0.50 0.34 0.26 0.24 0.22 0.29 0.34 0.42 0.42 0.41 0.35 0.50 0.56 0.37 0.58 0.65 0.52 0.53 0.80 0.92 0.86 0.83 0.90 0.93 0.91 0.86
0.58 0.52 0.52 0.49 0.47 0.51 0.53 0.49 0.62 0.65 0.57 0.54 0.38 0.31 0.31 0.33 0.34 0.34 0.40 0.45 0.79 0.75 0.47 0.41 0.40 0.59 0.72 0.47 0.39 0.44 0.42 0.70 0.81 0.80 0.78 0.85 0.87 0.82
0.72 0.76 0.64 0.50 0.43 0.36 0.34 0.28 0.28 0.27 0.35 0.35 0.35 0.30 0.34 0.29 0.31 0.34 0.37 0.33 0.55 0.38 0.47 0.45 0.44 0.50 0.53 0.53 0.68 0.41 0.45 0.57 0.69 0.72 0.79 0.83 0.83 0.97
0.63 0.48 0.36 0.35 0.35 0.32 0.38 0.38 0.26 0.26 0.24 0.26 0.34 0.31 0.36 0.43 0.35 0.30 0.37 0.46 0.39 0.39 0.36 0.34 0.45 0.81 0.79 0.53 0.38 0.52 0.99 0.96 0.73 0.57 0.62 0.79 0.83 0.83
0.57 0.43 0.40 0.41 0.40 0.37 0.35 0.35 0.39 0.42 0.35 0.37 0.41 0.40 0.33 0.33 0.41 0.33 0.34 0.47 0.44 0.34 0.45 0.52 0.58 0.67 0.85 0.88 0.38 0.28 0.58 0.54 0.52 0.51 0.54 0.70 0.94 0.84
0.34 0.36 0.36 0.31 0.27 0.22 0.21 0.25 0.26 0.29 0.30 0.29 0.38 0.34 0.32 0.32 0.34 0.33 0.32 0.36 0.38 0.32 0.28 0.30 0.39 0.48 0.68 0.65 0.67 0.39 0.35 0.43 0.53 0.59 0.60 0.64 0.72 0.78
0.22 0.24 0.27 0.27 0.22 0.19 0.22 0.24 0.28 0.30 0.29 0.30 0.32 0.31 0.28 0.31 0.27 0.25 0.25 0.24 0.25 0.27 0.30 0.26 0.24 0.32 0.44 0.52 0.64 0.55 0.53 0.39 0.40 0.59 0.68 0.85 0.73 0.62
0.27 0.26 0.22 0.24 0.26 0.23 0.22 0.23 0.22 0.22 0.22 0.23 0.27 0.29 0.31 0.32 0.30 0.29 0.27 0.27 0.24 0.22 0.21 0.18 0.21 0.26 0.38 0.42 0.53 0.48 0.50 0.56 0.39 0.32 0.51 0.69 0.78 0.83
0.28 0.27 0.22 0.22 0.22 0.24 0.24 0.23 0.21 0.21 0.23 0.25 0.24 0.26 0.30 0.32 0.30 0.31 0.30 0.27 0.26 0.24 0.20 0.22 0.24 0.26 0.24 0.22 0.38 0.50 0.36 0.40 0.50 0.42 0.50 0.42 0.38 0.42